sat.trackr.live / text

‹ back to catalog

STARLINK-35755

NORAD 67163 · 2025-303A

PAYLOAD ACTIVE UNKNOWN

§ Identity

Operator
Country
US
Launch date
2025-12-17
Launch site
AFETR
Launch vehicle
Mass (kg)
RCS (m²)

Purposes: comms

External: N2YO · Heavens-Above · Gunter

§ Orbital elements

Epoch: 2026-05-24T23:37:43.431744Z

Period
94.27 min
Inclination
43.0007°
Eccentricity
0.0000936
Mean motion
15.27587153 rev/d
Perigee alt
482.4 km
Apogee alt
483.7 km
Semi-major
6,861.2 km
B*
4.5768e-4
RAAN
239.8289°
Arg perigee
278.5099°
Mean anomaly
81.5647°
Rev number
2,440

§ Raw data

STARLINK-357551 67163U 25303A   26144.98453046  .00012356  00000+0  45768-3 0  99912 67163  43.0007 239.8289 0000936 278.5099  81.5647 15.27587153 24403

JSON: /api/v1/satellites/67163 · /tle

For live sub-satellite position, see the globe view (requires WebGL).

§ Visibility from observer

Set your observer location to see the next 7 days of passes ≥ 10°. The values pass through the URL so the page stays shareable.

No JS? Fill the form by hand. The geolocation button needs JavaScript.